Date,TemperatureHighF,TemperatureAvgF,TemperatureLowF,DewpointHighF,DewpointAvgF,DewpointLowF,HumidityHigh,HumidityAvg,HumidityLow,PressureMaxIn,PressureMinIn,WindSpeedMaxMPH,WindSpeedAvgMPH,GustSpeedMaxMPH,PrecipitationSumIn
2013-2-1,14,6,-1,12,0,-6,90,76,67,30.45,30.25,7,5,20,0.00
2013-2-2,24,16,8,21,12,2,93,84,73,30.26,30.08,6,3,17,0.00
2013-2-3,21,17,10,19,12,4,92,81,70,30.14,30.03,7,3,19,0.00
2013-2-4,28,23,15,24,20,12,93,89,84,30.10,29.91,4,2,12,0.00
2013-2-5,30,23,12,28,20,9,94,87,76,30.12,29.86,6,2,16,0.00
2013-2-6,38,30,17,30,24,15,91,78,67,30.28,30.15,5,2,13,0.08
2013-2-7,35,33,32,34,32,29,97,94,85,30.16,29.90,4,2,12,0.84
2013-2-8,32,26,23,32,23,20,97,90,86,30.44,29.99,7,4,19,0.01
2013-2-9,34,29,26,28,24,21,90,82,76,30.45,30.13,7,3,17,0.00
2013-2-10,49,40,33,47,37,28,97,90,78,30.13,29.52,9,6,27,0.38
2013-2-11,45,33,28,36,26,22,79,74,67,30.07,29.56,13,9,35,0.00
2013-2-12,28,26,22,23,21,19,93,82,77,30.15,29.98,7,3,20,0.00
2013-2-13,43,33,22,34,28,21,96,84,66,29.97,29.77,6,2,15,0.00
2013-2-14,38,36,32,33,30,24,88,78,63,30.01,29.69,8,4,25,0.00
2013-2-15,32,27,20,26,17,10,83,66,47,30.23,30.01,6,4,19,0.00
2013-2-16,19,16,9,11,6,2,76,66,56,30.27,30.18,6,3,19,0.00
2013-2-17,30,20,6,17,7,2,86,61,35,30.29,30.07,6,2,13,0.00
2013-2-18,52,40,29,46,33,18,95,76,62,30.06,29.46,11,7,27,0.26
2013-2-19,28,15,9,26,10,4,90,79,74,30.25,29.61,13,9,36,0.00
2013-2-20,22,14,7,14,7,1,85,74,65,30.43,30.26,6,3,15,0.00
2013-2-21,31,24,14,26,19,10,93,82,76,30.45,30.04,8,3,21,0.00
2013-2-22,34,28,23,32,25,22,96,91,83,30.04,29.85,6,4,18,0.00
2013-2-23,27,25,21,24,20,18,88,82,73,30.02,29.95,6,4,17,0.00
2013-2-24,37,26,15,24,19,13,92,77,57,30.20,30.02,3,1,8,0.07
2013-2-25,44,33,23,29,25,19,89,72,48,30.22,30.00,3,2,9,0.06
2013-2-26,36,33,31,32,29,26,97,86,70,29.99,29.56,6,4,19,0.00
2013-2-27,34,32,32,32,31,30,97,95,89,29.75,29.56,5,3,14,0.05
2013-2-28,37,33,28,31,29,22,96,86,74,30.11,29.75,6,4,18,0.14